Location: Newark
(46.8500°N, 5.1667°E)
Time: 13:44:19
(UTC+00:00)

ISS - Pass Details

Date: 22 September 2019
Orbit: 411 x 421 km, 51.6° (Epoch: 15 October)

Event Time Altitude Azimuth Distance (km) Brightness Sun altitude
Rises 19:21:49 0° 249° (WSW) 2,337 0.8 -18.2°
Reaches altitude 10° 19:23:55 10° 251° (WSW) 1,477 -0.3 -18.6°
Maximum altitude 19:27:13 72° 337° (NNW) 436 -3.7 -19.1°
Enters shadow 19:27:47 56° 38° (NE) 497 -3.6 -19.2°
